{"data":{"norad_id":56894,"intl_designator":"2023-083U","name":"STARLINK-6144","alt_names":[],"object_type":"PAYLOAD","status":"ACTIVE","operator":null,"country":"US","launch_date":"2023-06-12","launch_site_code":"AFETR","launch_vehicle":null,"mission":null,"orbit_class":"UNKNOWN","rcs_meters":null,"size_class":null,"mass_kg":null,"dimensions":null,"purposes":["comms"],"wikipedia_slug":null,"has_3d_model":false,"image_url":null,"decayed_at":null,"tle_current":{"epoch":"2026-05-25T00:26:42.597312Z","epoch_age_seconds":76742,"freshness":"FRESH","line1":"1 56894U 23083U   26145.01854858 -.00000547  00000+0 -10355-4 0  9990","line2":"2 56894  43.0045  17.5607 0001080 263.4033  96.6696 15.27574751163383","mean_motion":15.27574751,"eccentricity":0.000108,"inclination_deg":43.0045,"raan_deg":17.5607,"arg_perigee_deg":263.4033,"mean_anomaly_deg":96.6696,"bstar":-1.0355e-5,"rev_number":16338,"period_min":94.267072629822,"perigee_km":482.32380368312,"apogee_km":483.80582327483,"semimajor_km":6861.201813479,"source":"CELESTRAK","updated_at":"2026-05-25T13:38:18.170759Z"}}}